Location: Sternwarte auf dem Internationalen Platz Vogelsang IP
(50.5721°N, 6.4398°E)
Time: 07:25:58
(UTC+01:00)

Tiros 1 despin weight - Visible Passes

Search period start: 11 December 2025 00:00
Search period end: 21 December 2025 00:00
Orbit: 558 x 596 km, 48.2° (Epoch: 09 December)

Date Brightness Start Highest point End Pass type
(mag) Time Alt. Az. Time Alt. Az. Time Alt. Az.
11 Dec ? 17:44:19 10° S 17:46:25 13° SE 17:48:31 10° ESE visible
11 Dec ? 19:22:16 10° SW 19:24:54 30° SSW 19:24:54 30° SSW visible
12 Dec ? 17:46:17 10° S 17:49:19 19° SE 17:51:49 12° ESE visible
12 Dec ? 19:25:11 10° WSW 19:28:01 35° SSW 19:28:01 35° SSW visible
13 Dec ? 17:48:42 10° SSW 17:52:14 25° SSE 17:54:53 14° ESE visible
13 Dec ? 19:28:10 10° WSW 19:31:05 39° SW 19:31:05 39° SW visible
14 Dec ? 17:51:20 10° SW 17:55:11 32° SSE 17:57:55 16° E visible
14 Dec ? 19:31:12 10° WSW 19:34:08 40° SW 19:34:08 40° SW visible
15 Dec ? 17:54:07 10° SW 17:58:10 41° SSE 18:00:55 18° E visible
15 Dec ? 19:34:16 10° W 19:37:07 39° WSW 19:37:07 39° WSW visible
16 Dec ? 17:57:00 10° WSW 18:01:10 49° SSE 18:03:55 20° E visible
16 Dec ? 19:37:19 10° W 19:40:07 38° WSW 19:40:07 38° WSW visible
17 Dec ? 17:59:57 10° WSW 18:04:11 57° S 18:06:54 21° E visible
17 Dec ? 19:40:24 10° W 19:43:06 36° WSW 19:43:06 36° WSW visible
18 Dec ? 18:02:56 10° WSW 18:07:13 62° S 18:09:53 22° E visible
18 Dec ? 19:43:27 10° W 19:46:05 33° WSW 19:46:05 33° WSW visible
19 Dec ? 18:05:57 10° W 18:10:15 64° S 18:12:55 22° ESE visible
19 Dec ? 19:46:31 10° W 19:49:07 31° WSW 19:49:07 31° WSW visible
20 Dec ? 18:08:58 10° W 18:13:15 63° S 18:15:58 21° ESE visible
20 Dec ? 19:49:37 10° W 19:52:11 28° WSW 19:52:11 28° WSW visible
